Terug naar catalogus

STARLINK-4725

ActiefCommunicatieVLEO
NORAD 53700·PAYLOAD·🇺🇸 United States

Gelanceerd Sep 5, 2022 vanaf Cape Canaveral Space Force Station

Loading…

Volgende Passages (komende 24 uur)

TLE

VersSource: CelesTrak SupGP

Epoch: Sep 14, 2026, 20:49 UTC

1 53700C 22107A   26257.86784722  .00660090  00000+0  20386-1 0  2570
2 53700  53.1609 112.0616 0001400  85.6458 304.9112 15.32660917    10

Volg STARLINK-4725 in realtime met AllMySat

Download on the App Store